Showing default

GGSE 1 (GGRS), 728

Orbit data source: Space-Track

GGSE 1 (GGRS), 728 is an American payload satellite in LEO that was launched on Sat, 11 Jan 1964 UTC via a THOR SLV-2A AGENA D launch vehicle from the Air Force Western Test Range (AFWTR). Payload-class satellites include a variety of spacecraft equipped with specific instruments for various scientific and technological missions. These include communications satellites like Starlink; space stations such as the ISS; scientific satellites like the Hubble; Earth observation satellites from companies like Planet Labs, Umbra, and HawkEye 360; GPS; miniature CubeSats for education and research; and military/defense satellites.

Loading next visibility...
Identifier
728, 1964-001B
Orbit
LEO
Last TLE update
19 hours ago
Origin
Manufacturer
NRL
Mission
Defense Technology
Bus & Motor
NRL 20", Unknown motor
Mass
38 kg wet, 38 kg dry
Launch date (UTC)
1964-01-11 (61 years ago)
Launch vehicle
THOR SLV-2A AGENA D
Launch site
Air Force Western Test Range (AFWTR)
Object type
Payload
Rocket body
Debris
Shape & HBR
Sphere + 1 Ant, 9 m
Radar Cross Section
0.623 m², Medium (>0.1 m² and < 1m²)

Expand to show TLE details & history

TLE from 19 hours ago
0 GGSE 1 (GGRS)
1 00728U 64001B   25128.98849162  .00000115  00000-0  11934-3 0  9991
2 00728  69.9090 353.9960 0012429 158.0040 202.1602 13.97667800123199
Epoch: 2025-05-08T23:43Z
Definitive object data (Epoch: 2025-05-08T23:43:25.675Z)
Latitude
-0.00004°
Longitude
131.08792°
Altitude
912.573 km
Speed
7.392 km/s
True Right ascension
23h 35m 59s
True Declination
0° 00' 00"
Sunlit
Object was in daylight at TLE epoch
Visualization TLE readout
Latitude
42.06128°
Longitude
148.54109°
Altitude
910.725 km
Speed
7.399 km/s
Apparent Right ascension
20h 31m 02s
Apparent Declination
14° 34' 30"
Sunlit
Object is in daylight
Visualization observer readout
Local Sidereal Time
03:00:53
Azimuth
285.917° WNW
Elevation
3.731°
Doppler factor
1
Orbital elements
Apogee altitude
908.979 km
Perigee altitude
890.887 km
Semi-major axis
7,278.07 km
Eccentricity
0.0012429
Inclination
69.909°
RAAN
353.996°
Arg. of periapsis
158.004°
True anomaly
202.10655°
Mean anomaly
202.1602°
Eccentric anomaly
202.13337°
Mean motion
3.49558 °/min
BSTAR
0.00011934
Orbital period
102.99 mins
Loading maneuver chart data...
Loading SW <> Apogee altitude chart data...
Loading historical data...
Loading historical data...
Loading historical data...
Loading historical data...
Loading historical data...
Loading historical data...
Loading historical data...
Other satellites on launch #1 in the year 1964 (1964-01-11 UTC)

GGSE 1 (GGRS) Visibility forecast

Observer location: undefined°, undefined°

Span
Click to sort rows by Start time (UTC) header in descending order
Start Az.
Max El. time (UTC)
Max El. Az.
Max El.
End time (UTC)
End Az.
6 mins2025-05-10 00:19:01.234Z11.763° NNE2025-05-10 00:22:01.234Z44.405° NE16.417°2025-05-10 00:25:01.234Z78.843° E
10 mins2025-05-10 02:04:01.234Z333.118° NNW2025-05-10 02:09:01.234Z185.24° SSW43.977°2025-05-10 02:14:01.234Z160.563° S
10 mins2025-05-10 15:20:01.234Z166.495° S2025-05-10 15:25:01.234Z105.649° ESE29.111°2025-05-10 15:30:01.234Z44.255° NE
9 mins2025-05-10 17:06:01.234Z241.421° WSW2025-05-10 17:10:01.234Z293.05° NW30.638°2025-05-10 17:15:01.234Z4.984° NNE
|